SCP
1 2 2 3 2 1 0 0 0 0 0 0 0 0 0 0 0 0 0 0 0 0 0 1 1 1 1 1 1 1 1 1 1 1 1 1 1 1 1 1 1 2 2 3 2 1 1 1 1
1 2 3 3 2 1 0 0 0 0 0 0 0 0 0 0 0 0 0 0 0 0 0 1 1 1 1 1 1 1 1 2 2 1 1 1 1 1 1 1 1 2 2 2 2 1 1 1 1
2 3 4 3 2 0 0 0 0 0 0 0 0 0 0 0 0 0 0 0 0 0 0 1 1 1 1 1 1 1 1 2 2 2 1 1 2 2 2 2 2 2 2 2 2 2 1 1 1
3 3 3 2 1 0 0 0 0 0 0 0 0 0 0 0 0 0 0 0 0 0 1 1 1 1 1 1 1 1 1 1 1 1 1 2 2 2 2 2 2 2 2 2 2 1 1 1 1
4 3 2 1 1 0 0 0 0 0 0 0 0 0 0 0 0 0 0 0 0 0 1 1 1 1 1 1 1 1 1 1 1 1 1 2 2 2 2 2 2 2 2 1 1 1 1 1 1
6 4 2 1 0 0 0 0 0 0 0 0 0 0 0 0 0 0 0 0 0 0 1 1 1 1 1 1 1 1 1 1 1 1 1 1 1 2 2 1 1 1 1 1 1 1 1 1 1
4 3 1 0 0 0 0 0 0 0 0 0 0 1 1 0 0 0 0 0 0 0 1 1 2 2 2 1 1 1 1 1 1 1 1 1 1 1 1 1 1 1 1 1 1 1 1 1 1
2 1 0 0 0 0 0 0 0 0 0 0 0 0 1 1 0 0 0 0 0 0 1 1 2 2 2 1 1 1 1 1 1 1 1 1 1 1 1 1 1 1 1 1 1 1 1 1 1
1 0 0 0 0 0 0 0 0 0 0 0 0 0 1 0 0 0 0 0 0 0 1 1 1 2 2 2 2 2 1 1 1 1 1 1 1 1 1 1 1 1 1 1 1 1 1 1 1
0 0 0 0 0 0 0 0 0 0 0 0 0 0 0 0 0 0 0 0 0 0 0 1 1 2 2 3 2 2 1 1 1 1 1 1 1 1 1 1 1 1 1 1 1 1 1 1 1
0 0 0 0 0 0 0 0 0 0 0 0 0 0 0 0 0 0 0 0 0 0 0 0 1 1 2 2 3 2 1 1 1 1 1 1 1 1 1 1 1 1 1 1 1 1 1 1 1
0 0 0 0 0 0 0 0 0 0 0 0 0 0 0 1 1 1 0 0 0 0 0 0 1 2 2 3 3 2 2 1 1 1 1 1 1 1 1 1 1 1 1 1 1 1 1 1 1
0 0 0 0 0 0 0 0 0 0 0 0 0 1 1 1 1 1 1 1 1 1 0 1 1 2 3 4 4 3 2 2 1 1 1 1 1 1 1 1 1 1 1 1 1 1 1 1 1
0 0 0 0 0 0 0 0 0 0 0 0 0 1 1 1 1 1 1 1 1 1 1 1 1 2 3 4 4 3 3 2 2 1 1 1 1 1 1 1 1 1 1 1 1 1 1 1 1
0 0 0 0 0 0 0 0 0 0 0 1 1 1 1 1 1 1 1 1 1 1 1 1 2 3 4 4 4 3 3 3 2 2 1 1 1 1 1 1 1 1 1 1 1 1 1 1 1
0 0 0 0 0 0 0 0 0 0 1 1 1 1 1 1 1 2 2 2 2 3 3 2 2 3 4 4 4 3 3 3 2 2 2 1 1 1 1 1 1 1 1 1 1 1 1 1 1
0 0 0 0 0 0 0 0 0 0 1 1 1 1 1 1 1 2 2 3 3 4 5 4 3 3 4 4 4 3 3 3 2 2 2 2 1 1 1 1 1 1 1 1 1 1 1 1 1
0 0 0 0 0 0 0 1 0 0 1 1 1 1 1 1 1 2 3 3 4 5 7 6 4 4 5 4 4 3 3 2 2 2 2 2 2 1 1 1 1 1 1 1 1 1 1 1 1
0 0 0 0 0 0 0 1 1 0 0 1 1 2 2 2 2 2 3 4 4 7 9 8 6 5 5 4 4 3 3 2 2 2 3 3 2 1 1 1 1 1 1 2 2 2 2 1 1
0 0 0 0 0 0 0 1 1 1 1 1 1 2 2 2 2 3 4 5 6 8 11 11 9 7 6 5 4 4 3 2 2 2 3 3 2 2 1 1 1 1 1 2 2 2 2 1 1
0 0 0 0 0 0 1 1 1 1 1 1 1 2 2 2 2 3 5 6 7 10 13 13 12 10 8 6 5 4 3 2 2 3 3 4 3 2 2 2 2 1 1 2 2 3 2 2 2
0 0 0 0 0 0 1 1 1 1 1 1 1 1 2 3 3 3 4 7 8 10 12 14 14 12 10 8 6 4 3 2 2 2 3 4 3 3 2 2 2 2 1 2 2 3 3 2 2
0 0 0 0 0 0 1 1 1 1 1 1 1 1 2 3 3 3 4 6 7 8 10 13 15 14 11 9 7 5 3 2 2 2 3 3 3 3 3 2 2 2 2 2 2 2 3 3 3
0 0 0 0 0 0 0 1 1 1 1 1 1 1 1 3 4 4 4 5 6 7 9 11 14 14 11 9 7 5 4 3 2 2 2 3 3 3 3 3 3 3 3 2 2 2 3 3 3
0 0 0 0 0 0 0 0 1 1 1 1 1 1 1 2 4 5 4 5 7 8 9 11 13 12 10 8 6 5 4 3 2 2 2 2 3 3 3 4 4 4 4 3 3 3 3 3 3
0 0 0 0 0 0 0 1 1 0 1 1 1 1 1 2 4 5 5 7 10 11 10 10 11 11 9 6 5 5 4 3 3 2 2 3 3 3 4 5 6 5 5 4 4 3 4 4 4
0 0 0 0 0 1 1 1 1 1 1 1 1 1 1 2 3 4 6 9 12 12 11 9 9 11 9 6 5 5 4 4 4 3 3 3 4 4 4 5 6 6 6 6 5 4 4 4 4
0 0 0 0 1 1 1 2 1 1 1 1 2 1 1 2 3 5 8 10 12 11 8 7 8 9 9 6 5 5 5 5 5 5 4 4 5 5 5 6 6 7 7 7 6 6 6 5 5
0 0 0 1 1 1 1 1 1 1 2 2 2 2 2 3 4 7 8 9 10 8 6 5 7 8 7 5 5 5 5 6 6 5 5 5 6 5 6 6 6 7 8 8 9 8 8 6 5
0 0 0 1 1 1 1 1 1 1 2 3 3 3 3 4 6 7 8 8 7 6 5 5 6 6 6 5 5 5 6 6 6 6 6 6 6 6 6 6 6 6 7 9 10 10 9 7 6
Wind_Speed
10 11 9 6 4 2 13 13 13 12 12 12 12 12 15 15 11 10 7 9 10 10 9 9 10 10 11 11 11 12 13 14 14 14 14 15 16 16 16 17 18 19 19 19 19 18 18 17 17
10 12 9 5 1 7 11 12 13 12 11 12 13 15 17 17 14 11 8 8 10 10 9 10 11 11 11 11 11 12 13 13 13 14 14 15 15 15 16 17 18 18 18 18 18 18 17 17 16
12 13 7 2 7 10 11 11 11 11 10 11 14 15 13 12 12 9 9 9 10 11 12 11 12 11 11 11 11 11 12 13 13 13 14 14 15 15 16 17 17 17 17 17 17 17 16 15 14
8 7 5 3 14 13 11 10 10 10 10 11 12 12 13 12 11 11 10 10 11 12 12 12 12 11 11 11 11 11 12 12 12 13 13 14 14 14 15 16 16 16 16 16 16 16 15 14 12
9 5 1 9 14 13 11 10 11 11 12 14 15 15 14 13 12 10 9 10 10 12 12 12 12 11 11 11 11 11 11 12 12 12 13 13 14 13 14 15 15 15 15 15 15 14 13 12 10
6 4 3 9 13 12 11 11 11 12 12 14 15 14 12 11 10 9 9 8 10 12 13 12 12 11 11 11 10 10 11 11 11 12 12 12 12 12 14 14 14 14 14 14 13 12 11 10 8
8 3 7 12 12 11 11 10 11 10 10 11 13 13 11 10 9 9 9 7 9 11 11 10 10 10 11 11 10 10 10 10 11 11 12 12 12 13 13 13 13 13 13 12 12 11 10 8 6
5 2 7 11 12 12 11 10 10 11 10 9 9 10 11 10 10 10 9 8 8 9 9 9 10 9 8 9 10 10 9 9 10 11 11 12 12 12 13 12 11 12 11 11 10 9 8 7 5
3 3 7 10 11 11 11 11 11 10 11 11 12 15 14 12 11 9 8 7 6 7 7 7 8 8 8 9 10 8 9 8 9 8 10 10 7 9 9 12 12 11 10 10 9 8 7 6 5
2 5 12 12 11 11 10 10 11 10 11 13 14 15 14 11 9 8 9 8 7 6 7 6 7 6 5 7 6 5 6 6 3 4 6 5 4 5 9 11 12 11 10 9 9 8 7 6 4
6 10 11 12 12 11 10 9 10 11 11 12 13 13 12 11 8 8 8 8 8 5 6 8 8 5 5 4 4 3 3 4 3 4 4 4 4 5 6 5 7 7 8 5 7 6 4 4 3
7 9 10 11 10 10 10 9 10 11 12 14 13 12 11 10 8 8 8 9 7 6 6 7 8 6 5 4 3 3 3 3 3 4 3 3 2 2 3 2 4 4 3 4 3 3 3 2 2
7 8 10 9 9 10 11 11 12 12 14 15 14 12 11 9 9 8 8 8 7 5 6 8 7 6 4 4 3 3 3 3 4 3 3 3 2 2 3 2 1 2 3 3 2 1 2 1 1
6 7 9 9 9 9 11 11 10 12 14 14 12 11 11 9 9 9 9 7 7 5 6 7 7 6 4 3 2 2 3 3 3 3 4 3 2 2 2 2 1 1 2 2 1 1 1 1 1
4 5 6 8 8 9 10 10 10 12 13 13 12 10 10 10 9 9 9 8 7 6 6 6 6 6 4 3 1 1 2 3 3 3 4 3 2 2 1 1 1 1 1 1 1 1 1 1 1
5 5 4 6 7 9 6 8 12 13 12 12 11 11 10 9 10 9 10 8 8 7 7 4 5 7 5 3 1 1 2 2 3 3 3 4 3 2 1 1 1 1 1 1 1 1 0 0 1
6 7 8 6 6 9 6 9 13 13 13 12 11 11 10 10 9 10 10 10 8 7 7 5 4 6 5 4 2 1 1 1 1 2 2 4 4 3 2 1 1 1 1 1 1 1 0 0 0
7 6 7 6 6 7 8 10 13 14 13 13 12 12 11 11 10 10 11 11 9 8 7 6 5 5 4 4 2 1 1 1 1 1 2 2 2 3 2 2 2 1 1 1 1 1 0 1 1
10 7 4 4 6 5 7 10 12 14 13 12 12 12 12 12 12 11 11 11 11 9 8 6 5 5 3 3 3 2 2 1 2 2 2 2 1 1 1 0 2 1 1 1 1 1 1 1 1
10 7 4 4 5 4 4 6 9 12 14 13 13 12 13 13 12 12 11 11 11 10 9 7 6 6 5 3 2 2 2 2 2 2 3 2 1 1 1 1 1 1 1 1 1 1 1 1 1
10 7 4 4 4 4 4 5 8 10 11 12 12 12 13 14 14 13 13 12 12 11 10 9 7 6 6 5 3 2 2 1 1 2 3 2 2 2 0 1 0 0 1 1 1 1 1 1 1
8 5 6 7 7 6 8 4 7 10 11 12 13 12 13 13 14 14 14 13 12 12 11 9 8 7 6 5 4 4 3 2 2 2 3 3 2 2 2 1 1 0 1 1 1 1 1 1 1
9 6 7 9 10 8 8 4 4 7 9 12 12 12 13 14 14 14 14 13 13 13 12 10 9 7 7 5 4 4 3 2 2 2 3 3 2 2 2 2 1 1 0 1 1 1 0 1 1
10 8 8 10 10 10 7 5 5 8 11 11 12 11 11 13 14 14 13 13 12 13 12 12 10 8 7 7 6 5 4 2 2 2 3 3 2 3 3 2 2 1 0 0 0 0 0 1 1
12 10 7 8 7 6 6 6 5 10 12 11 10 11 11 11 13 13 14 14 12 13 13 12 12 10 9 8 6 6 5 4 4 3 3 3 2 3 3 3 2 2 1 1 1 1 1 1 1
13 13 10 9 7 6 9 7 6 9 8 9 10 10 12 11 12 12 13 13 12 12 12 12 12 10 9 8 7 6 6 4 3 4 3 3 2 2 3 3 3 2 2 2 1 1 2 1 2
14 12 13 12 11 8 6 6 6 7 8 9 10 10 12 12 12 13 13 13 13 12 10 10 11 9 9 8 7 6 5 5 4 4 4 3 2 2 3 4 3 3 2 1 1 1 2 1 1
16 13 9 11 8 8 7 6 3 5 6 7 8 9 11 11 11 12 13 13 12 12 11 10 11 10 8 8 7 7 6 5 4 2 3 3 2 1 2 3 3 3 3 3 2 2 2 2 2
15 15 12 9 9 8 6 4 3 5 6 7 7 7 8 11 11 11 12 12 12 12 12 11 10 10 9 8 6 5 6 6 5 4 4 3 3 2 3 3 3 3 4 3 3 3 3 3 3
15 15 14 10 8 7 7 4 4 5 5 7 7 7 6 8 9 9 11 10 10 11 12 11 10 10 9 8 7 6 5 5 5 5 4 4 4 4 4 4 3 4 4 3 4 4 3 3 3
Wind_Direction
196 213 218 237 248 71 63 64 65 67 68 62 60 66 60 55 68 88 99 96 98 96 95 83 70 69 68 67 68 69 69 71 79 88 89 90 92 96 96 96 100 103 105 106 106 107 109 110 111
223 224 226 247 273 69 66 61 65 66 72 75 72 72 70 69 79 94 95 95 96 93 88 83 79 75 73 72 70 73 74 75 82 89 92 92 94 96 98 100 102 104 105 107 107 108 110 111 113
253 251 254 228 59 69 73 70 74 72 71 78 75 65 65 76 83 97 110 104 96 91 91 90 85 81 79 79 77 77 78 79 82 90 94 95 96 98 99 101 103 104 105 106 107 109 110 112 115
253 242 245 74 72 73 79 82 85 83 78 79 81 75 71 77 94 106 115 108 102 102 97 95 91 86 85 83 80 80 81 83 83 91 95 98 98 100 101 103 104 105 105 106 107 109 111 112 115
246 261 164 78 78 80 80 83 83 80 79 79 84 89 83 85 96 107 109 105 104 102 101 100 98 94 90 87 82 83 87 88 89 94 99 101 102 102 104 104 104 105 105 106 107 110 111 113 116
258 244 114 87 86 86 84 82 82 82 89 95 99 98 96 105 108 111 105 100 104 107 105 108 108 103 96 93 88 89 93 93 95 100 105 105 105 105 107 107 108 108 108 110 111 114 116 117 122
258 301 85 95 96 91 89 88 87 89 91 100 109 105 110 115 114 109 99 97 102 108 113 122 118 109 104 100 94 99 101 102 107 111 116 116 116 112 111 112 113 113 114 115 117 121 124 127 133
267 342 70 89 98 95 96 93 93 91 85 100 109 111 118 122 123 115 112 103 99 108 114 121 124 128 126 114 112 114 115 115 118 122 128 130 128 125 125 122 119 120 121 123 126 130 135 143 161
290 35 73 87 98 104 106 103 98 95 92 83 81 102 117 125 122 121 117 107 98 97 102 113 115 128 128 120 122 130 127 128 134 138 145 149 147 138 134 122 129 131 133 137 140 145 152 165 188
71 65 73 85 98 107 110 115 115 110 100 97 95 103 118 125 128 129 123 116 104 96 100 96 90 88 101 110 127 140 132 134 149 134 148 161 134 122 122 135 142 146 148 152 162 167 177 194 201
65 74 81 92 104 112 114 117 126 123 117 115 117 123 129 132 134 126 114 109 105 108 93 93 91 84 85 92 118 116 113 126 133 109 116 120 119 129 131 147 152 159 162 170 164 183 200 197 194
82 83 90 96 106 109 107 103 96 99 112 120 125 131 132 136 134 124 116 111 112 108 96 89 91 81 61 64 85 108 110 117 113 117 121 110 111 116 127 138 150 160 159 164 171 189 185 179 187
99 102 102 105 109 106 106 98 99 105 114 123 129 137 140 141 134 124 117 116 113 108 104 90 90 82 69 54 29 79 86 101 105 106 92 105 111 100 99 92 109 145 140 153 163 152 152 167 230
110 112 118 119 122 123 113 110 112 120 126 130 136 143 148 144 141 131 129 126 124 124 113 108 110 107 98 88 41 42 96 97 98 105 110 99 96 100 107 132 120 93 126 146 162 186 175 180 160
123 131 131 138 146 132 126 121 129 136 138 140 145 150 150 150 143 141 141 141 138 132 121 122 126 119 123 121 118 112 106 113 109 108 120 121 117 125 140 165 154 180 159 139 164 193 170 183 147
186 177 162 167 161 148 167 135 143 149 150 150 154 155 155 153 153 150 145 147 147 143 133 141 136 127 130 123 99 46 71 99 121 129 136 142 154 146 151 161 164 194 174 152 166 194 185 98 125
228 211 188 175 173 154 170 141 148 157 158 158 162 161 162 162 165 158 153 152 150 139 136 143 124 128 137 141 142 129 82 80 100 120 130 149 159 155 173 177 166 215 163 142 208 96 76 147 146
234 227 187 176 173 163 153 147 158 166 167 166 168 167 170 171 174 165 161 155 151 143 142 148 141 136 144 148 153 146 123 123 126 118 120 133 154 157 184 183 174 211 143 123 87 98 225 195 217
240 239 192 177 174 177 159 159 170 170 174 171 171 173 175 175 173 167 166 160 155 149 150 154 153 148 156 158 159 160 153 172 166 164 138 140 167 147 166 77 139 202 145 146 171 164 201 205 178
252 259 222 186 190 193 176 167 178 177 181 177 176 176 176 173 170 167 170 167 162 156 156 156 164 159 166 163 162 170 167 176 163 145 134 148 156 171 159 163 207 161 159 187 183 153 223 235 174
250 252 251 232 218 235 205 187 189 188 185 178 179 178 178 177 174 172 175 174 168 162 164 170 169 164 171 169 173 181 156 190 155 149 142 151 162 161 103 127 182 312 235 156 193 211 228 234 236
247 245 247 256 245 242 241 216 197 193 192 186 182 182 180 177 173 175 177 177 172 166 168 164 164 166 170 175 182 190 175 181 181 161 146 157 173 166 160 148 160 87 337 97 207 130 270 256 264
255 251 254 259 257 254 244 244 196 178 208 194 184 185 182 178 174 174 174 173 174 170 168 165 164 167 168 181 186 189 196 193 182 157 144 159 167 168 154 152 138 119 340 61 42 31 341 290 304
256 251 253 258 262 258 266 251 204 191 204 192 183 182 181 176 170 170 169 167 173 171 169 166 164 168 172 180 187 190 205 201 202 179 165 179 172 167 172 164 141 139 168 120 77 303 263 338 331
237 239 238 238 241 255 273 260 206 201 193 179 177 176 176 176 167 168 167 168 173 173 171 167 163 170 175 182 189 189 199 207 215 211 192 195 186 165 169 169 148 162 199 188 188 203 239 267 285
233 238 242 245 239 223 230 241 210 188 168 157 160 171 169 176 163 164 165 167 173 173 170 165 163 169 177 184 187 190 193 207 215 212 216 200 188 168 159 162 161 173 207 222 201 221 226 212 265
237 237 250 259 258 262 230 226 200 168 163 162 160 169 175 173 166 164 164 166 168 169 167 165 159 168 179 183 180 189 188 208 221 200 203 209 192 183 160 166 174 180 194 231 247 227 247 231 255
236 244 241 252 257 257 248 249 200 192 180 176 171 169 166 165 168 167 163 166 167 165 161 166 160 170 178 182 186 186 189 201 217 211 196 192 195 200 175 178 182 184 184 193 226 241 233 215 220
223 235 244 252 259 258 253 246 217 186 186 172 169 157 164 164 171 168 160 162 160 164 163 165 163 168 176 183 184 193 181 190 196 199 198 191 194 198 199 199 196 195 195 196 210 236 221 220 228
234 232 238 243 253 262 267 244 187 185 194 161 159 150 144 158 158 155 155 153 160 163 167 166 166 172 177 179 177 187 183 185 192 197 197 195 200 200 201 203 207 211 202 201 208 234 227 223 231